Date String (YYYY-MM-DD hh:mm:ss) UTC,Instrument flags,Ambient pressure (hPa),Sample flow (lpm),Bypass flow (lpm),Sample temperature (°C),Ambient temperature (°C),ASC tube jacket temperature (°C),LED temperature (°C),Box temperature (°C),Sample RH (%),Span deviation,Mass concentration (μg/m³),Mass concentration (μg/m³),Mass concentration (μg/m³)
DateTimeUTC,F1_M11,P_M11,Q1_M11,Q2_M11,T1_M11,T2_M11,T3_M11,T4_M11,T5_M11,U1_M11,ZSPAN_M11,X0_M11,X2_M11,X1_M11
2022-06-13 09:00:00,,0816.0,5.01,0.00,29.8,28.9,00.0,38.6,31.7,09.6,0000.0,0022.30,0007.51,0004.78
2022-06-13 09:01:00,,0816.0,5.01,0.00,29.8,28.9,00.0,38.6,31.7,09.8,0000.0,0023.34,0007.55,0004.78
2022-06-13 09:02:00,,0816.0,4.99,0.00,29.8,29.0,00.0,38.6,31.7,09.9,0000.0,0023.43,0007.56,0004.79
2022-06-13 09:03:00,,0815.9,4.99,0.00,29.8,29.0,00.0,38.6,31.8,10.1,0000.0,0023.32,0007.58,0004.79
2022-06-13 09:04:00,,0815.9,5.01,0.00,29.8,28.9,00.0,38.6,31.8,09.6,0000.0,0022.65,0007.47,0004.80
2022-06-13 09:05:00,,0815.9,5.00,0.00,29.8,28.2,00.0,38.6,31.6,09.6,0000.0,0022.52,0007.42,0004.81
2022-06-13 09:06:00,,0815.9,5.01,0.00,29.7,27.7,00.0,38.5,31.4,09.6,0000.0,0023.32,0007.45,0004.82
2022-06-13 09:07:00,,0815.9,4.99,0.00,29.7,27.5,00.0,38.5,31.3,09.6,0000.0,0023.95,0007.45,0004.83
2022-06-13 09:08:00,,0815.9,5.01,0.00,29.6,27.6,00.0,38.5,31.3,09.6,0000.0,0024.05,0007.48,0004.82
2022-06-13 09:09:00,,0815.8,4.99,0.00,29.5,27.6,00.0,38.5,31.3,09.7,0000.0,0023.83,0007.47,0004.82
2022-06-13 09:10:00,,0815.8,5.00,0.00,29.5,27.7,00.0,38.5,31.3,09.7,0000.0,0025.18,0007.46,0004.82
2022-06-13 09:11:00,,0815.8,5.00,0.00,29.5,27.8,00.0,38.5,31.3,09.8,0000.0,0026.72,0007.46,0004.84
2022-06-13 09:12:00,,0815.9,5.01,0.00,29.5,28.0,00.0,38.4,31.3,09.8,0000.0,0025.21,0007.40,0004.87
2022-06-13 09:13:00,,0815.9,5.00,0.00,29.5,28.1,00.0,38.4,31.3,09.6,0000.0,0023.60,0007.41,0004.88
2022-06-13 09:14:00,,0815.9,5.00,0.00,29.5,28.2,00.0,38.4,31.3,09.8,0000.0,0022.81,0007.41,0004.89
2022-06-13 09:15:00,,0816.0,5.00,0.00,29.5,28.2,00.0,38.4,31.4,10.0,0000.0,0022.00,0007.49,0004.89
2022-06-13 09:16:00,,0816.0,4.99,0.00,29.5,28.3,00.0,38.4,31.4,10.1,0000.0,0022.28,0007.53,0004.90
2022-06-13 09:17:00,,0816.0,5.01,0.00,29.5,28.4,00.0,38.4,31.4,09.8,0000.0,0022.18,0007.53,0004.90
2022-06-13 09:18:00,,0816.0,5.01,0.00,29.5,28.5,00.0,38.4,31.4,09.7,0000.0,0022.31,0007.53,0004.90
2022-06-13 09:19:00,,0816.0,4.99,0.00,29.6,28.5,00.0,38.4,31.5,09.7,0000.0,0023.17,0007.50,0004.91
2022-06-13 09:20:00,,0815.9,4.99,0.00,29.6,28.6,00.0,38.5,31.5,09.5,0000.0,0024.72,0007.42,0004.91
2022-06-13 09:21:00,,0816.0,5.00,0.00,29.6,28.6,00.0,38.5,31.5,09.5,0000.0,0024.03,0007.47,0004.91
2022-06-13 09:22:00,,0816.0,5.00,0.00,29.6,28.6,00.0,38.5,31.5,09.5,0000.5,0022.68,0007.47,0004.89
2022-06-13 09:23:00,,0816.1,5.01,0.00,29.6,28.7,00.0,38.5,31.5,09.4,0001.9,0023.25,0007.57,0004.87
2022-06-13 09:24:00,,0816.0,5.00,0.00,29.7,28.7,00.0,38.5,31.6,09.3,0001.8,0024.50,0007.66,0004.87
2022-06-13 09:25:00,,0816.0,4.99,0.00,29.7,28.8,00.0,38.5,31.6,09.5,0002.0,0025.39,0007.66,0004.87
2022-06-13 09:26:00,,0816.0,5.00,0.00,29.7,28.8,00.0,38.5,31.6,09.3,0003.6,0025.99,0007.68,0004.86
2022-06-13 09:27:00,,0816.0,5.01,0.00,29.7,28.8,00.0,38.5,31.6,09.2,0003.5,0025.14,0007.69,0004.87
2022-06-13 09:28:00,,0816.0,5.01,0.00,29.7,28.8,00.0,38.5,31.7,09.3,0003.1,0024.69,0007.68,0004.88
2022-06-13 09:29:00,,0816.0,5.00,0.00,29.7,28.9,00.0,38.6,31.7,09.1,0003.5,0025.49,0007.69,0004.89
2022-06-13 09:30:00,,0816.0,5.00,0.00,29.8,28.9,00.0,38.6,31.7,09.1,0004.1,0026.09,0007.75,0004.88
2022-06-13 09:31:00,,0815.9,5.00,0.00,29.8,28.9,00.0,38.6,31.7,09.1,0003.2,0024.23,0007.89,0004.88
2022-06-13 09:32:00,,0815.9,5.00,0.00,29.8,28.9,00.0,38.6,31.7,09.0,0003.2,0023.60,0007.85,0004.89
2022-06-13 09:33:00,,0815.9,5.00,0.00,29.8,29.0,00.0,38.6,31.8,09.0,0002.6,0023.62,0007.76,0004.88
2022-06-13 09:34:00,,0815.9,5.01,0.00,29.8,29.0,00.0,38.6,31.7,08.9,0001.5,0024.38,0007.78,0004.89
2022-06-13 09:35:00,,0815.9,5.00,0.00,29.9,29.0,00.0,38.7,31.7,08.9,0001.8,0023.69,0007.68,0004.89
2022-06-13 09:36:00,,0815.9,5.00,0.00,29.9,29.0,00.0,38.7,31.8,08.9,0001.2,0022.77,0007.68,0004.88
2022-06-13 09:37:00,,0815.9,5.00,0.00,29.9,28.8,00.0,38.6,31.8,08.9,0000.9,0022.75,0007.72,0004.90
2022-06-13 09:38:00,,0816.0,5.01,0.00,29.8,28.0,00.0,38.6,31.5,09.0,0000.4,0023.63,0007.71,0004.90
2022-06-13 09:39:00,,0816.0,4.99,0.00,29.8,27.7,00.0,38.5,31.4,09.1,0000.0,0024.08,0007.80,0004.90
2022-06-13 09:40:00,,0815.9,5.01,0.00,29.7,27.6,00.0,38.5,31.3,09.1,0000.0,0024.22,0007.82,0004.90
2022-06-13 09:41:00,,0815.9,4.99,0.00,29.6,27.7,00.0,38.5,31.3,09.2,0000.8,0024.24,0007.85,0004.91
2022-06-13 09:42:00,,0815.8,5.00,0.00,29.6,27.8,00.0,38.5,31.3,09.1,0002.5,0024.11,0007.74,0004.90
2022-06-13 09:43:00,,0815.8,5.00,0.00,29.6,27.9,00.0,38.5,31.3,09.0,0003.9,0025.38,0007.77,0004.89
2022-06-13 09:44:00,,0815.8,5.00,0.00,29.5,28.0,00.0,38.5,31.3,08.9,0004.7,0025.30,0007.90,0004.88
2022-06-13 09:45:00,,0815.8,5.00,0.00,29.5,28.1,00.0,38.5,31.4,09.3,0004.6,0025.16,0007.97,0004.89
2022-06-13 09:46:00,,0815.8,5.00,0.00,29.5,28.2,00.0,38.5,31.4,09.5,0003.8,0025.81,0007.96,0004.88
2022-06-13 09:47:00,,0815.8,5.01,0.00,29.5,28.3,00.0,38.5,31.4,09.1,0002.8,0027.08,0007.88,0004.86
2022-06-13 09:48:00,,0815.8,5.00,0.00,29.6,28.3,00.0,38.5,31.4,08.8,0001.4,0027.92,0007.94,0004.86
2022-06-13 09:49:00,,0815.8,4.99,0.00,29.6,28.4,00.0,38.5,31.5,08.7,0000.9,0028.22,0007.92,0004.86
2022-06-13 09:50:00,,0815.7,4.99,0.00,29.6,28.5,00.0,38.5,31.5,08.7,0001.0,0027.82,0007.88,0004.85
2022-06-13 09:51:00,,0815.7,5.00,0.00,29.6,28.5,00.0,38.5,31.5,08.6,0001.2,0027.29,0007.83,0004.83
2022-06-13 09:52:00,,0815.8,5.00,0.00,29.6,28.6,00.0,38.5,31.5,09.0,0000.3,0026.81,0007.81,0004.83
2022-06-13 09:53:00,,0815.8,5.00,0.00,29.6,28.6,00.0,38.5,31.5,09.3,0000.0,0027.61,0007.85,0004.83
2022-06-13 09:54:00,,0815.8,5.00,0.00,29.6,28.7,00.0,38.5,31.5,09.4,0000.0,0027.15,0007.82,0004.84
2022-06-13 09:55:00,,0815.9,5.00,0.00,29.7,28.7,00.0,38.5,31.6,08.7,0000.0,0027.92,0007.73,0004.84
2022-06-13 09:56:00,,0815.8,5.01,0.00,29.7,28.7,00.0,38.5,31.6,08.2,-000.0,0027.24,0007.67,0004.84
2022-06-13 09:57:00,,0815.8,4.99,0.00,29.7,28.8,00.0,38.5,31.6,08.1,0000.2,0026.93,0007.76,0004.83
2022-06-13 09:58:00,,0815.8,5.00,0.00,29.7,28.8,00.0,38.5,31.6,08.2,0000.2,0025.66,0007.84,0004.84
2022-06-13 09:59:00,,0815.8,5.00,0.00,29.7,28.8,00.0,38.6,31.6,08.1,0000.4,0025.17,0007.81,0004.84
